EN

Hourly Weather Nyiregyhaza

Today, 18 September, Saturday

Time Temperature Precipitation Wind Pressure Humidity
00:00 +16°C° 0 mm 3 mps 748 mmHg 87%
01:00 +16°C° 0 mm 3 mps 748 mmHg 87%
02:00 +16°C° 0.1 mm 3 mps 748 mmHg 88%
03:00 +14°C° 0.1 mm 3 mps 748 mmHg 88%
04:00 +15°C° 0.1 mm 2 mps 748 mmHg 89%
05:00 +16°C° 0.7 mm 3 mps 748 mmHg 87%
06:00 +16°C° 0.7 mm 3 mps 748 mmHg 85%
07:00 +16°C° 0.7 mm 3 mps 748 mmHg 83%
08:00 +17°C° 0.5 mm 3 mps 748 mmHg 77%
09:00 +18°C° 0.5 mm 2 mps 748 mmHg 70%
10:00 +19°C° 0.5 mm 2 mps 749 mmHg 63%
11:00 +20°C° 0.3 mm 2 mps 749 mmHg 59%
12:00 +21°C° 0.3 mm 2 mps 748 mmHg 55%
13:00 +23°C° 0.3 mm 2 mps 748 mmHg 51%
14:00 +21°C° 0.3 mm 2 mps 748 mmHg 54%
15:00 +20°C° 0.3 mm 2 mps 748 mmHg 57%
16:00 +20°C° 0.3 mm 2 mps 748 mmHg 59%
17:00 +19°C° 0.1 mm 2 mps 748 mmHg 61%
18:00 +18°C° 0.1 mm 2 mps 748 mmHg 62%
19:00 +17°C° 0.1 mm 3 mps 748 mmHg 64%
20:00 +17°C° 0 mm 2 mps 748 mmHg 67%
21:00 +16°C° 0 mm 2 mps 748 mmHg 70%
22:00 +15°C° 0 mm 2 mps 748 mmHg 73%
23:00 +15°C° 0 mm 2 mps 748 mmHg 74%

Tomorrow, 19 September, Sunday

Time Temperature Precipitation Wind Pressure Humidity
00:00 +15°C° 0 mm 1 mps 748 mmHg 75%
01:00 +14°C° 0 mm 1 mps 748 mmHg 76%
02:00 +14°C° 0 mm 1 mps 748 mmHg 78%
03:00 +14°C° 0 mm 1 mps 748 mmHg 79%
04:00 +13°C° 0 mm 1 mps 748 mmHg 80%
05:00 +13°C° 0 mm 2 mps 748 mmHg 79%
06:00 +12°C° 0 mm 3 mps 749 mmHg 78%
07:00 +13°C° 0 mm 4 mps 749 mmHg 76%
08:00 +14°C° 0 mm 4 mps 749 mmHg 70%
09:00 +14°C° 0 mm 4 mps 749 mmHg 64%
10:00 +15°C° 0 mm 4 mps 750 mmHg 58%
11:00 +15°C° 0 mm 4 mps 750 mmHg 57%
12:00 +17°C° 0 mm 3 mps 750 mmHg 56%
13:00 +17°C° 0 mm 3 mps 750 mmHg 55%
14:00 +16°C° 0 mm 3 mps 750 mmHg 55%
15:00 +15°C° 0 mm 4 mps 750 mmHg 56%
16:00 +15°C° 0 mm 4 mps 749 mmHg 57%
17:00 +14°C° 0 mm 4 mps 750 mmHg 60%
18:00 +13°C° 0 mm 4 mps 750 mmHg 62%
19:00 +12°C° 0 mm 4 mps 750 mmHg 65%
20:00 +12°C° 0 mm 4 mps 750 mmHg 66%
21:00 +12°C° 0 mm 4 mps 750 mmHg 66%
22:00 +12°C° 0 mm 3 mps 751 mmHg 67%
23:00 +11°C° 0 mm 3 mps 751 mmHg 70%

Day after tomorrow, 20 September, Monday

Time Temperature Precipitation Wind Pressure Humidity
00:00 +10°C° 0 mm 3 mps 751 mmHg 73%
01:00 +9°C° 0 mm 2 mps 751 mmHg 76%
02:00 +9°C° 0 mm 2 mps 751 mmHg 77%
03:00 +9°C° 0 mm 3 mps 751 mmHg 78%
04:00 +9°C° 0 mm 3 mps 751 mmHg 79%
05:00 +9°C° 0 mm 3 mps 751 mmHg 76%
06:00 +10°C° 0 mm 4 mps 751 mmHg 73%
07:00 +9°C° 0 mm 5 mps 751 mmHg 70%
08:00 +12°C° 0 mm 5 mps 752 mmHg 65%
09:00 +13°C° 0 mm 6 mps 752 mmHg 59%
10:00 +14°C° 0 mm 6 mps 752 mmHg 53%
11:00 +14°C° 0 mm 6 mps 752 mmHg 52%
12:00 +15°C° 0 mm 7 mps 752 mmHg 51%
13:00 +15°C° 0 mm 7 mps 752 mmHg 50%
14:00 +14°C° 0 mm 7 mps 753 mmHg 51%
15:00 +14°C° 0 mm 6 mps 753 mmHg 52%
16:00 +13°C° 0 mm 6 mps 753 mmHg 53%
17:00 +11°C° 0 mm 6 mps 754 mmHg 57%
18:00 +10°C° 0 mm 5 mps 754 mmHg 60%
19:00 +9°C° 0 mm 5 mps 755 mmHg 63%
20:00 +8°C° 0 mm 4 mps 755 mmHg 64%
21:00 +9°C° 0 mm 3 mps 755 mmHg 66%
22:00 +9°C° 0 mm 2 mps 756 mmHg 67%
23:00 +9°C° 0 mm 2 mps 756 mmHg 68%

21 September, Tuesday

Time Temperature Precipitation Wind Pressure Humidity
00:00 +9°C° 0 mm 2 mps 756 mmHg 68%
01:00 +9°C° 0 mm 2 mps 756 mmHg 69%
02:00 +9°C° 0 mm 2 mps 756 mmHg 68%
03:00 +9°C° 0 mm 2 mps 757 mmHg 68%
04:00 +9°C° 0 mm 2 mps 757 mmHg 67%
05:00 +10°C° 0 mm 1 mps 757 mmHg 65%
06:00 +10°C° 0 mm 1 mps 757 mmHg 63%
07:00 +11°C° 0 mm 1 mps 758 mmHg 61%
08:00 +12°C° 0 mm 1 mps 758 mmHg 54%
09:00 +14°C° 0 mm 2 mps 758 mmHg 47%
10:00 +16°C° 0 mm 3 mps 758 mmHg 40%
11:00 +17°C° 0 mm 3 mps 758 mmHg 38%
12:00 +18°C° 0 mm 3 mps 758 mmHg 35%
13:00 +18°C° 0 mm 3 mps 758 mmHg 33%
14:00 +18°C° 0 mm 3 mps 757 mmHg 34%
15:00 +18°C° 0 mm 3 mps 757 mmHg 35%
16:00 +18°C° 0 mm 3 mps 757 mmHg 35%
17:00 +16°C° 0 mm 3 mps 757 mmHg 40%
18:00 +14°C° 0 mm 3 mps 758 mmHg 45%
19:00 +12°C° 0 mm 4 mps 758 mmHg 49%
20:00 +12°C° 0 mm 3 mps 758 mmHg 50%
21:00 +11°C° 0 mm 3 mps 758 mmHg 52%
22:00 +12°C° 0 mm 2 mps 758 mmHg 53%
23:00 +12°C° 0 mm 2 mps 758 mmHg 54%

22 September, Wednesday

Time Temperature Precipitation Wind Pressure Humidity
00:00 +12°C° 0 mm 2 mps 758 mmHg 56%
01:00 +10°C° 0 mm 2 mps 758 mmHg 58%
02:00 +10°C° 0 mm 2 mps 758 mmHg 59%
03:00 +10°C° 0 mm 2 mps 758 mmHg 61%
04:00 +10°C° 0 mm 2 mps 758 mmHg 63%
05:00 +10°C° 0.1 mm 2 mps 758 mmHg 65%
06:00 +10°C° 0.1 mm 3 mps 758 mmHg 67%
07:00 +10°C° 0.1 mm 3 mps 758 mmHg 69%
08:00 +11°C° 0 mm 4 mps 758 mmHg 63%
09:00 +12°C° 0 mm 4 mps 758 mmHg 58%
10:00 +13°C° 0 mm 5 mps 758 mmHg 53%
11:00 +14°C° 0 mm 5 mps 757 mmHg 50%
12:00 +14°C° 0 mm 5 mps 757 mmHg 46%
13:00 +15°C° 0 mm 5 mps 757 mmHg 42%
14:00 +14°C° 0 mm 5 mps 756 mmHg 42%
15:00 +14°C° 0 mm 4 mps 756 mmHg 43%
16:00 +14°C° 0 mm 4 mps 756 mmHg 43%
17:00 +13°C° 0 mm 3 mps 756 mmHg 48%
18:00 +11°C° 0 mm 3 mps 756 mmHg 53%
19:00 +10°C° 0 mm 2 mps 756 mmHg 59%
20:00 +10°C° 0 mm 2 mps 756 mmHg 61%
21:00 +10°C° 0 mm 1 mps 756 mmHg 64%
22:00 +10°C° 0 mm 1 mps 756 mmHg 67%
23:00 +10°C° 0 mm 1 mps 756 mmHg 65%

23 September, Thursday

Time Temperature Precipitation Wind Pressure Humidity
00:00 +9°C° 0 mm 2 mps 756 mmHg 63%
01:00 +9°C° 0 mm 2 mps 755 mmHg 62%
02:00 +9°C° 0 mm 2 mps 755 mmHg 62%
03:00 +9°C° 0 mm 2 mps 755 mmHg 63%
04:00 +9°C° 0 mm 2 mps 755 mmHg 64%
05:00 +10°C° 0 mm 3 mps 755 mmHg 62%
06:00 +10°C° 0 mm 3 mps 754 mmHg 59%
07:00 +11°C° 0 mm 3 mps 754 mmHg 57%
08:00 +12°C° 0 mm 3 mps 754 mmHg 51%
09:00 +14°C° 0 mm 4 mps 754 mmHg 45%
10:00 +17°C° 0 mm 4 mps 753 mmHg 38%
11:00 +18°C° 0 mm 4 mps 753 mmHg 36%
12:00 +19°C° 0 mm 4 mps 752 mmHg 33%
13:00 +20°C° 0 mm 4 mps 752 mmHg 30%
14:00 +20°C° 0 mm 4 mps 751 mmHg 32%
15:00 +19°C° 0 mm 4 mps 751 mmHg 33%
16:00 +19°C° 0 mm 3 mps 750 mmHg 34%
17:00 +18°C° 0 mm 3 mps 750 mmHg 39%
18:00 +16°C° 0 mm 3 mps 750 mmHg 45%
19:00 +14°C° 0 mm 3 mps 749 mmHg 50%
20:00 +14°C° 0 mm 3 mps 749 mmHg 50%
21:00 +13°C° 0 mm 4 mps 749 mmHg 50%
22:00 +13°C° 0 mm 4 mps 749 mmHg 51%
23:00 +13°C° 0 mm 5 mps 748 mmHg 51%
Show more

We Need Your Consent

Meteoprog and our Service Providers may store and access personal data such as cookies, device identifiers or other similar technologies on your device and process such data to personalise content and ads, as well as provide social media features and to analyse the traffic.

  • Store and/or access information on your device

    Cookies, device identifiers or other information can be stored or accessed on your device for the purposes indicated above.

  • Personalised ads and content, ad and content measurement, audience insights, and products development

    Ads and content can be personalised based on a profile. More data can be added to better personalise ads and content. Ad and content performance can be measured. Insights about the audience who saw the ads and content can be derived. Such data can be used to develop or improve user’s experience, systems and software.

By clicking ‘I Agree’ you will allow the use of indicated cookies, device identifiers, web beacons or other similar technologies. Your settings can be changed in the browser on your device.

For certain purposes, legitimate interests may be relied on, rather than consent. You can read more about this in our Privacy and Cookie Policy.